Regional Weather Roundup
Issued by NWS

Home | Current Version | Previous Version | Text Only | Print | Product List | Glossary Off
Versions: 1 2 3 4 5 6 7 8 9 10 11 12 13 14 15 16 17 18 19 20 21 22 23 24 25 26 27 28 29 30 31 32 33 34 35 36 37 38 39 40 41 42 43 44 45 46 47 48 49 50

000
ASUS45 KBOU 280607
RWRCO

WEATHER ROUNDUP FOR COLORADO
NATIONAL WEATHER SERVICE DENVER/BOULDER CO
1200 AM MDT THU AUG 28 2014

NOTE: "FAIR" INDICATES FEW OR NO CLOUDS BELOW 12000 FEET WITH NO
SIGNIFICANT WEATHER AND/OR OBSTRUCTIONS TO VISIBILITY.

COZ001>005-013-030-031-280700-
...NORTHWEST COLORADO...

CITY           SKY/WX    TMP DP  RH WIND       PRES   REMARKS
CRAIG          CLOUDY    54  50  86 W9        30.28F
HAYDEN         CLOUDY    52  46  82 SW3       30.29S
MEEKER         LGT RAIN  51  49  92 CALM      30.30F
MOUNT WERNER   NOT AVBL
STEAMBOAT SPGS CLOUDY    50  48  92 CALM      30.31S
WALDEN         CLOUDY    46  41  81 S9        30.33F
$$

COZ006>008-011-280700-
...WEST CENTRAL VALLEYS...

CITY           SKY/WX    TMP DP  RH WIND       PRES   REMARKS
GRAND JUNCTION CLOUDY    59  57  93 CALM      30.25R
MONTROSE       MOCLDY    53  48  83 SE6       30.31S
EAGLE          CLOUDY    54  46  76 W9        30.33S
RIFLE          CLOUDY    56  51  84 E5        30.27F
DELTA          RAIN      58  53  84 CALM      30.27S
NUCLA          NOT AVBL
$$

COZ017>023-064>068-280700-
...SOUTHWEST COLORADO...

CITY           SKY/WX    TMP DP  RH WIND       PRES   REMARKS
DURANGO        CLEAR     49  44  83 N5        30.32S
CORTEZ         CLEAR     48  47  96 SE6       30.30
PAGOSA SPRINGS CLEAR     47  40  75 CALM      30.36F
TELLURIDE      MOCLDY    45  43  93 CALM      30.45S
WOLF CREEK PAS CLEAR     34  32  93 SW15      30.55S WCI  24
$$

COZ009-010-012-014-032>034-037-058>063-280700-
...CENTRAL COLORADO...

CITY           SKY/WX    TMP DP  RH WIND       PRES   REMARKS
ASPEN          LGT RAIN  49  45  86 NW3       30.36S
BUENA VISTA    MOCLDY    52  35  51 W12       30.32S
COPPER MTN     HAZE      37  34  87 W12       30.52S VSB 1/2
BERTHOUD PASS  FOG       32  30  93 NW22G29   30.53S VSB<1/4 WCI  19
COTTONWOOD PAS MOCLDY    48  32  53 NW9G16    30.41F
GUNNISON       CLOUDY    48  39  71 CALM      30.38F
KREMMLING      CLOUDY    54  43  66 S5        30.34R
LEADVILLE      CLOUDY    42  35  76 N8        30.42S
SALIDA         MOCLDY    55  38  51 W14       30.37S
SUNLIGHT       FOG       41  41 100 CALM      30.49S VSB 3/4
WILKERSON PASS NOT AVBL
$$

COZ069>075-280700-
...SAN LUIS VALLEY/SANGRE DE CRISTO MOUNTAINS...

CITY           SKY/WX    TMP DP  RH WIND       PRES   REMARKS
ALAMOSA        CLEAR     47  40  76 CALM      30.33S
LA VETA PASS   NOT AVBL
SAGUACHE       PTCLDY    46  41  81 NW10      30.36S
$$

COZ035-036-038>040-280700-
...NORTHERN COLORADO FRONT RANGE...

CITY           SKY/WX    TMP DP  RH WIND       PRES   REMARKS
DENVER INTL AP PTCLDY    56  52  86 W5        30.19R
DMNS CITY PARK   N/A     55  51  89 NE1       30.18S
AURORA         PTCLDY    56  53  89 E3        30.21R
FRONT RANGE AP PTCLDY    57  54  88 SE6       30.19S
ERIE MUNI ARPT PTCLDY    58  54  88 E6        30.17R
BOULDER MUN AP PTCLDY    55  52  88 N3        30.17R
CENTENNIAL     PTCLDY    54  49  83 S9        30.19S
BROOMFIELD     PTCLDY    55  54  94 E8        30.19R
FORT COLLINS   MOCLDY    59  54  82 SE7       30.17R
LONGMONT       MOCLDY    59  56  91 CALM      30.18R
$$

COZ041-046-047-076>085-087-088-280700-
...PIKES PEAK/PALMER DIVIDE AND SOUTHERN FOOTHILLS...

CITY           SKY/WX    TMP DP  RH WIND       PRES   REMARKS
COLO. SPRINGS  PTCLDY    58  50  75 N20       30.20R
A. F. ACADEMY  PTCLDY    55  45  70 N10       30.23R
ELLICOTT       CLEAR     56  50  80 NE17G26   30.17S
FALCON         CLEAR     54  51  89 N12       30.24S
FORT CARSON    CLEAR     58  49  73 N10       30.17R
LIMON          LGT RAIN  58  55  90 N22G29    30.14F
MONUMENT HILL  CLOUDY    52  50  93 NE3       30.25S
TRINIDAD       CLEAR     60  40  47 W6        30.16R
$$

COZ042>045-048>051-090-091-280700-
...NORTHEAST COLORADO...

CITY           SKY/WX    TMP DP  RH WIND       PRES   REMARKS
GREELEY ARPT   CLOUDY    63  48  59 E5        30.16R
AKRON          LGT RAIN  59  57  93 W21       30.15S
BURLINGTON     LGT RAIN  62  58  86 NW22G32   30.06R
WRAY             N/A    N/A N/A N/A NE3       30.05F
STERLING       LGT RAIN  64  63  94 W10       30.11F
HOLYOKE        RAIN      63  59  88 S6        30.07R
FORT MORGAN    CLOUDY    61  53  75 CALM      30.14F
$$

COZ086-089-092>099-280700-
...SOUTHEAST COLORADO...

CITY           SKY/WX    TMP DP  RH WIND       PRES   REMARKS
PUEBLO         PTCLDY    66  52  60 N22       30.11R
LA JUNTA       PTCLDY    67  57  70 N21G32    30.04R
LAMAR          PTCLDY    69  63  81 W6        29.96R
SPRINGFIELD      N/A     67  63  87 S9        30.04F
$$



USA.gov is the U.S. government's official web portal to all federal, state and local government web resources and services.